Pasco, WA

1:00 AM PDT on May 28, 2017 (GMT -0700)
Tri-Cities

Weather History for KPSC - April, 2014

Change the Weather History Date:

Saturday, April 26, 2014

  Actual Average Record
Temperature  
Mean Temperature 50 °F 55 °F  
Max Temperature 65 °F 70 °F 87 °F (2001)
Min Temperature 35 °F 40 °F 26 °F (2008)
Degree Days  
Heating Degree Days 15 10  
Month to date heating degree days 281 324  
Since 1 July heating degree days 5069 4785  
Cooling Degree Days 0 0  
Month to date cooling degree days 0 0  
Year to date cooling degree days 0 0  
Moisture  
Dew Point 31 °F    
Average Humidity 54    
Maximum Humidity 92    
Minimum Humidity 16    
Precipitation  
Precipitation 0.00 in 0.02 in 0.41 in (2012)
Month to date precipitation 0.35 0.57  
Year to date precipitation 2.09 3.44  
Snow  
Snow 0.00 in - - ()
Snow Depth 0.00 in    
Sea Level Pressure  
Sea Level Pressure 29.74 in    
Wind  
Wind Speed 8 mph (SSW)    
Max Wind Speed 26 mph    
Max Gust Speed 35 mph    
Visibility 10 miles    
Events      
T = Trace of Precipitation, MM = Missing Value Source: NWS Daily Summary

Daily Weather History Graph

Daily Weather History Graph

Search for Another Location

Airport or City:

Trip Planner

Search our weather history database for the weather conditions in past years. The results will help you decide how hot, cold, wet, or windy it might be!

Date:

Astronomy

Apr. 26, 2014 Rise Set
Actual Time 5:50 AM PDT 7:58 PM PDT
Civil Twilight 5:17 AM PDT 8:31 PM PDT
Nautical Twilight 4:37 AM PDT 9:12 PM PDT
Astronomical Twilight 3:52 AM PDT 9:57 PM PDT
Moon 4:27 AM PDT (4/26) 5:24 PM PDT (4/26)
Length of Visible Light 15h 13m
Length of Day
14h 08m
Waning Crescent, 7% of the Moon is Illuminated
Apr 26
Waning Crescent
Apr 28
New
May 6
First Quarter
May 14
Full
May 21
Last Quarter

Hourly Weather History & Observations

Time (PDT) Temp. Windchill Dew Point Humidity Pressure Visibility Wind Dir Wind Speed Gust Speed Precip Events Conditions
12:53 AM 44.1 °F - 39.0 °F 82% 29.76 in 10.0 mi Calm Calm - N/A   Mostly Cloudy
1:53 AM 39.9 °F - 37.9 °F 93% 29.76 in 10.0 mi Calm Calm - N/A   Clear
2:53 AM 39.0 °F 36.8 °F 37.0 °F 93% 29.76 in 10.0 mi ESE 3.5 mph - N/A   Clear
3:53 AM 37.9 °F - 36.0 °F 93% 29.76 in 10.0 mi Calm Calm - N/A   Overcast
4:53 AM 45.0 °F 41.2 °F 37.0 °F 74% 29.77 in 10.0 mi South 6.9 mph - N/A   Overcast
5:53 AM 45.0 °F 41.8 °F 37.9 °F 76% 29.77 in 10.0 mi South 5.8 mph - N/A   Overcast
6:53 AM 45.0 °F 41.2 °F 37.0 °F 74% 29.78 in 10.0 mi SSW 6.9 mph - N/A   Overcast
7:53 AM 46.9 °F - 37.9 °F 71% 29.79 in 10.0 mi SW 13.8 mph - N/A   Overcast
8:53 AM 51.1 °F - 37.9 °F 61% 29.78 in 10.0 mi SSW 8.1 mph - N/A   Overcast
9:53 AM 53.1 °F - 37.0 °F 55% 29.77 in 10.0 mi SSW 12.7 mph - N/A   Scattered Clouds
10:53 AM 55.9 °F - 35.1 °F 45% 29.76 in 10.0 mi Variable 4.6 mph - N/A   Clear
11:53 AM 59.0 °F - 33.1 °F 38% 29.75 in 10.0 mi SW 12.7 mph 21.9 mph N/A   Scattered Clouds
12:53 PM 62.1 °F - 28.0 °F 28% 29.74 in 10.0 mi SW 18.4 mph - N/A   Clear
1:53 PM 64.0 °F - 27.0 °F 25% 29.73 in 10.0 mi SW 21.9 mph 32.2 mph N/A   Partly Cloudy
2:53 PM 64.0 °F - 26.1 °F 24% 29.72 in 10.0 mi SSW 17.3 mph 28.8 mph N/A   Clear
3:53 PM 64.0 °F - 23.0 °F 21% 29.70 in 10.0 mi SSW 23.0 mph 28.8 mph N/A   Clear
4:53 PM 63.0 °F - 17.1 °F 17% 29.71 in 10.0 mi SW 21.9 mph 28.8 mph N/A   Clear
5:53 PM 62.1 °F - 16.0 °F 17% 29.70 in 10.0 mi SW 21.9 mph - N/A   Clear
6:53 PM 60.1 °F - 21.0 °F 22% 29.70 in 10.0 mi SW 18.4 mph 25.3 mph N/A   Clear
7:53 PM 55.9 °F - 25.0 °F 30% 29.70 in 10.0 mi SW 16.1 mph 25.3 mph N/A   Clear
8:53 PM 53.1 °F - 28.0 °F 38% 29.72 in 10.0 mi SW 10.4 mph - N/A   Scattered Clouds
9:53 PM 50.0 °F - 28.9 °F 44% 29.73 in 10.0 mi SW 10.4 mph - N/A   Clear
10:53 PM 48.9 °F - 28.9 °F 46% 29.73 in 10.0 mi South 3.5 mph - N/A   Clear
11:53 PM 53.1 °F - 28.9 °F 40% 29.73 in 10.0 mi SSW 4.6 mph - N/A   Partly Cloudy